DG7YEO-13 Weather Reports


Display with metric or nautical units.
time (UTC)temp
F
wind
direction
speed
MPH
gust
MPH
rain 1hr
in
rain 24hr
in
rain mn
in
humidity
%
barometer
mb
20260507031705 46 327 0.0 3.0 0.00 0.46 0.00 94 1011.6
20260507030205 46 288 0.0 2.0 0.00 0.48 0.00 94 1011.5
20260507024705 46 182 0.0 3.0 0.00 0.51 0.00 94 1011.4
20260507023205 47 221 0.0 2.0 0.00 0.53 0.00 94 1011.4
20260507021705 47 192 0.0 2.0 0.00 0.55 0.00 94 1011.3
20260507020204 47 234 0.0 3.0 0.00 0.56 0.00 93 1011.2
20260507014705 47 271 0.0 3.0 0.00 0.58 0.00 93 1011.1
20260507013205 47 286 0.0 1.0 0.00 0.60 0.00 93 1011.1
20260507011705 47 291 0.0 1.0 0.00 0.62 0.00 93 1011.0
20260507010205 47 296 0.0 2.0 0.00 0.65 0.00 93 1010.9
20260507004705 47 295 0.0 3.0 0.00 0.69 0.00 92 1010.9
20260507003205 47 301 0.0 2.0 0.00 0.73 0.00 92 1010.7
20260507001705 47 291 0.0 2.0 0.00 0.76 0.00 92 1010.6
20260507000205 47 229 0.0 1.0 0.00 0.78 0.00 92 1010.6
20260506234704 47 217 0.0 1.0 0.00 0.81 0.00 92 1010.7
20260506233205 48 217 0.0 1.0 0.00 0.83 0.00 92 1010.7
20260506231705 47 238 0.0 2.0 0.00 0.88 0.00 93 1010.6
20260506230205 47 238 0.0 4.0 0.00 0.90 0.00 93 1010.6
20260506224705 47 317 0.0 4.0 0.00 0.92 0.00 93 1010.5
20260506223205 47 227 0.0 2.0 0.00 0.93 0.00 93 1010.4
20260506221705 47 292 0.0 3.0 0.00 0.95 0.00 93 1010.4
20260506220205 48 335 0.0 3.0 0.00 0.95 0.95 93 1010.3
20260506214705 48 331 0.0 2.0 0.00 0.95 0.95 94 1010.3
20260506213205 48 245 0.0 2.0 0.00 0.95 0.95 94 1010.3
20260506211705 48 241 0.0 0.0 0.00 0.95 0.95 94 1010.1
20260506210205 48 242 0.0 2.0 0.00 0.95 0.95 94 1010.0
20260506204705 48 242 0.0 2.0 0.00 0.95 0.95 93 1009.9
20260506203205 48 274 0.0 4.0 0.00 0.95 0.95 93 1009.9
20260506201704 48 225 1.0 5.0 0.00 0.95 0.95 93 1009.9
20260506200205 48 326 0.0 5.0 0.00 0.95 0.95 93 1009.8
20260506194705 48 309 0.0 2.0 0.00 0.95 0.95 93 1009.7
20260506193205 48 322 0.0 3.0 0.00 0.95 0.95 93 1009.6
20260506191704 48 294 0.0 4.0 0.00 0.95 0.95 93 1009.5
20260506190205 48 293 0.0 3.0 0.00 0.95 0.95 93 1009.3
20260506184705 48 301 0.0 3.0 0.00 0.95 0.95 93 1009.2
20260506183205 48 305 0.0 1.0 0.00 0.95 0.95 93 1009.0
20260506181705 48 305 0.0 3.0 0.00 0.95 0.95 93 1008.9
20260506180205 48 323 0.0 3.0 0.00 0.95 0.95 92 1008.8
20260506174706 48 260 0.0 4.0 0.00 0.95 0.95 93 1008.7
20260506173205 48 5 1.0 5.0 0.00 0.95 0.95 93 1008.7
20260506171705 48 315 0.0 4.0 0.00 0.95 0.95 93 1008.6
20260506170205 48 315 1.0 6.0 0.00 0.95 0.95 93 1008.4
20260506164704 48 327 1.0 6.0 0.00 0.95 0.95 94 1008.3
20260506163205 48 316 1.0 4.0 0.00 0.95 0.95 94 1008.2
20260506161705 48 305 1.0 6.0 0.00 0.95 0.95 94 1008.3
20260506160205 49 308 1.0 6.0 0.00 0.95 0.95 95 1008.0
20260506154705 49 274 0.0 3.0 0.01 0.95 0.95 95 1008.0
20260506153205 49 88 0.0 6.0 0.01 0.95 0.95 95 1007.9
20260506151705 49 311 0.0 5.0 0.01 0.95 0.95 95 1007.9
20260506150205 49 87 1.0 4.0 0.01 0.95 0.95 95 1007.8
20260506144705 49 332 1.0 8.0 0.00 0.94 0.94 95 1007.8
20260506143204 49 326 1.0 6.0 0.01 0.94 0.94 95 1007.7
20260506140205 49 289 1.0 4.0 0.02 0.94 0.94 95 1007.6
20260506134705 49 302 1.0 7.0 0.02 0.94 0.94 95 1007.6
20260506133205 49 260 0.0 3.0 0.02 0.93 0.93 95 1007.6
20260506131704 49 302 0.0 3.0 0.01 0.92 0.92 95 1007.5
20260506130204 49 296 1.0 4.0 0.02 0.92 0.92 95 1007.5
20260506124705 49 11 0.0 3.0 0.02 0.92 0.92 95 1007.4
20260506123205 49 319 1.0 4.0 0.02 0.91 0.91 95 1007.4
20260506121704 48 297 1.0 4.0 0.03 0.91 0.91 95 1007.3
20260506120205 48 242 1.0 4.0 0.03 0.90 0.90 95 1007.1
20260506114704 48 346 1.0 4.0 0.04 0.90 0.90 95 1007.0
20260506113205 48 281 1.0 3.0 0.03 0.89 0.89 95 1007.1
20260506111704 47 319 1.0 4.0 0.02 0.88 0.88 95 1007.1
20260506110205 47 315 1.0 3.0 0.01 0.87 0.87 95 1006.9
20260506104705 47 304 1.0 6.0 0.00 0.86 0.86 95 1006.9
20260506103205 47 121 1.0 4.0 0.00 0.86 0.86 95 1006.8
20260506101705 47 319 1.0 5.0 0.00 0.86 0.86 95 1006.7
20260506100205 47 300 1.0 6.0 0.00 0.86 0.86 95 1006.6
20260506094705 47 240 1.0 4.0 0.00 0.86 0.86 96 1006.5
20260506093205 47 302 0.0 4.0 0.00 0.86 0.86 96 1006.4
20260506091705 47 266 1.0 6.0 0.00 0.86 0.86 96 1006.4
20260506090205 47 287 1.0 5.0 0.00 0.86 0.86 96 1006.3
20260506084705 47 308 1.0 5.0 0.01 0.86 0.86 96 1006.2
20260506083205 47 319 1.0 5.0 0.02 0.86 0.86 96 1006.0
20260506081705 47 298 1.0 3.0 0.04 0.86 0.86 96 1006.0
20260506080206 47 305 1.0 4.0 0.06 0.86 0.86 96 1005.8
20260506073205 47 311 1.0 5.0 0.09 0.84 0.84 96 1005.7
20260506071704 47 311 1.0 5.0 0.10 0.83 0.82 96 1005.7
20260506070205 47 304 1.0 5.0 0.09 0.82 0.80 96 1005.6
20260506061705 48 319 0.0 3.0 0.06 0.79 0.72 97 1005.3
20260506060205 48 300 0.0 4.0 0.07 0.77 0.70 97 1005.2
20260506050205 49 315 0.0 3.0 0.09 0.71 0.63 96 1005.2
20260506044705 49 290 0.0 3.0 0.08 0.68 0.60 96 1005.1
20260506043205 49 315 0.0 5.0 0.09 0.66 0.58 97 1005.1
20260506041705 49 301 1.0 5.0 0.07 0.64 0.56 96 1005.1
20260506040206 49 319 1.0 4.0 0.07 0.62 0.53 96 1005.1
20260506034705 49 232 0.0 3.0 0.08 0.60 0.51 96 1005.1
20260506033205 49 88 0.0 3.0 0.08 0.58 0.50 97 1005.2